Probability
0 1 2 3 3 3 1 0 1 2 5 6 8 8 9 10 13 17 20 23 21 16 15 15 14 13 12 12 15 16 17 17 16 14 14 16 16 16 17 19 20 20 19 17
0 0 2 3 3 3 2 1 2 4 6 7 8 8 9 11 13 14 17 21 21 17 14 14 15 15 13 12 14 17 18 17 16 15 16 18 18 16 16 19 20 20 19 18
0 0 1 2 2 3 3 3 4 5 8 10 9 8 7 10 14 15 18 21 22 18 15 15 17 18 17 14 14 17 17 16 16 17 18 21 21 18 17 19 20 20 20 20
0 0 1 1 1 2 3 4 4 5 9 11 10 8 6 8 14 18 21 24 23 21 18 18 20 21 20 17 16 17 16 15 15 17 19 21 22 21 19 19 20 20 20 20
0 0 0 0 1 2 4 4 5 6 9 10 9 8 8 7 10 14 18 20 22 22 21 21 23 23 22 20 20 19 17 16 16 16 18 19 19 20 19 20 20 19 19 18
0 0 0 0 2 4 5 6 6 6 8 8 8 9 8 7 7 9 10 13 16 19 20 21 22 23 22 21 21 20 19 19 18 17 17 17 17 17 18 19 19 19 18 17
0 0 0 2 4 6 6 6 7 7 7 7 7 7 8 8 8 7 6 8 12 15 17 18 19 20 20 19 20 21 20 21 22 20 18 17 17 16 17 17 19 20 19 19
0 1 1 3 6 8 8 8 7 8 8 7 7 7 9 10 9 7 6 8 12 15 16 17 16 16 16 16 18 19 20 22 24 24 22 20 19 18 17 17 19 20 20 19
1 2 3 4 8 10 11 10 8 7 7 7 7 8 10 10 9 8 9 10 13 15 16 16 14 13 13 13 14 16 18 21 23 25 25 23 21 20 19 17 18 20 20 19
2 2 4 6 9 12 13 11 9 8 7 7 7 8 8 9 9 9 10 11 12 13 13 12 10 10 10 10 12 14 16 18 20 23 24 24 22 21 20 19 19 20 20 19
1 1 3 5 8 10 11 11 10 10 10 9 8 7 6 7 7 8 10 10 8 8 8 7 6 6 6 8 10 11 13 15 16 17 19 21 20 18 17 17 17 17 17 17
0 0 2 4 7 8 8 8 9 11 12 11 10 7 5 4 4 5 6 6 5 4 4 4 4 4 5 7 8 10 11 12 13 13 15 17 17 15 13 12 10 9 10 11
0 1 3 5 6 7 6 6 6 8 9 10 9 6 4 2 3 3 4 3 3 3 3 3 3 4 5 7 8 9 10 11 12 13 14 15 15 14 12 10 8 6 5 5
1 1 3 4 4 5 5 6 5 5 5 6 6 6 4 2 2 3 3 3 3 4 3 3 2 3 4 6 8 9 9 9 10 11 12 12 13 12 12 12 12 9 5 3
2 1 1 1 1 2 4 5 6 5 3 3 4 4 3 1 1 2 2 2 3 4 3 1 1 1 1 3 5 6 6 6 6 8 9 9 10 10 11 13 15 13 9 6
1 1 0 0 0 1 1 3 4 5 4 3 3 2 1 0 0 1 1 1 1 2 2 1 0 0 1 2 3 4 4 3 4 5 7 8 7 8 9 12 15 15 12 9
0 0 0 0 0 0 0 1 1 3 4 4 3 1 0 0 0 0 0 0 0 1 1 0 0 1 2 3 3 3 3 3 3 3 4 5 6 6 8 11 12 13 11 10
0 0 0 0 0 0 0 0 0 1 3 4 4 2 0 0 0 0 0 0 0 0 0 0 0 1 2 3 3 3 3 2 1 1 1 2 3 5 8 9 9 8 8 8
0 0 0 0 0 0 0 0 0 2 4 4 3 2 1 0 0 0 0 0 0 0 0 0 0 0 1 1 2 2 2 1 0 0 0 0 2 4 6 7 7 7 6 7
0 0 0 0 0 0 0 0 1 3 5 4 3 3 1 1 1 0 0 0 0 0 0 0 0 0 0 0 1 1 1 0 0 0 0 1 3 4 5 6 6 6 6 7
0 0 0 0 0 0 0 0 2 3 4 4 3 3 3 2 1 0 0 0 0 0 0 0 0 0 0 0 0 0 0 0 0 0 0 1 4 5 5 6 6 6 5 6
0 0 0 0 0 0 0 0 1 2 3 3 3 3 3 3 1 0 0 0 0 0 0 0 0 0 0 0 0 0 0 0 0 0 0 1 3 4 4 5 5 5 4 4
0 0 0 0 1 1 1 0 0 2 3 3 3 2 3 2 1 0 0 0 0 0 0 0 0 0 0 0 0 0 0 0 0 0 0 0 1 2 3 3 3 4 3 3
1 0 0 1 2 2 1 0 0 1 2 2 1 1 1 1 1 0 0 0 0 0 0 0 0 0 0 0 0 0 0 0 0 0 0 0 0 1 1 2 3 3 3 3
2 1 1 1 2 3 1 0 0 1 1 1 0 0 0 0 0 0 0 0 0 0 0 0 0 0 0 0 0 1 0 0 0 0 0 0 0 0 1 2 3 3 3 2
2 2 1 2 2 2 1 0 0 0 0 0 0 0 0 0 0 0 0 0 0 0 0 0 0 0 0 0 0 0 0 0 0 0 0 0 0 0 1 2 3 3 2 1
1 1 1 2 2 1 0 0 0 0 0 0 0 0 0 0 0 0 0 0 0 0 0 0 0 0 0 0 0 0 0 0 0 0 0 0 0 0 0 1 3 3 2 1
Wind_Speed
2 2 1 1 1 1 3 5 5 5 5 5 4 3 2 2 4 5 5 4 4 4 3 4 4 4 5 5 4 5 5 5 5 4 4 3 3 3 4 4 4 4 3 3
3 3 3 3 3 1 1 2 3 3 1 2 1 3 3 4 5 5 4 4 4 3 4 5 5 4 4 4 5 5 5 5 4 3 3 3 3 3 3 3 3 3 3 3
2 4 4 3 2 2 2 1 4 3 3 2 4 4 3 3 4 4 4 3 3 3 3 3 4 4 4 4 5 5 5 4 4 4 4 4 3 3 3 3 3 3 4 4
1 3 1 6 2 4 7 5 4 3 3 5 5 4 3 3 4 4 4 3 2 2 1 1 2 2 3 3 3 4 4 4 4 4 4 3 3 3 3 3 3 3 3 3
3 1 3 4 3 1 5 3 2 4 5 5 6 6 5 4 3 3 3 2 2 0 0 1 1 2 3 2 2 3 3 3 3 4 4 4 3 3 3 2 3 3 3 3
4 3 3 5 4 1 8 3 3 4 5 4 5 4 1 2 3 4 4 2 1 1 2 2 1 2 3 2 1 2 3 3 3 3 4 4 4 4 3 2 3 2 2 3
3 2 4 5 3 4 5 5 3 3 5 5 4 4 4 2 2 3 3 3 2 2 1 1 1 2 2 1 1 2 2 2 2 3 3 4 3 3 2 2 2 2 2 2
3 2 5 5 2 3 5 3 3 3 3 4 4 3 3 3 3 3 3 3 3 2 2 1 1 2 1 1 2 1 1 2 2 3 3 3 2 2 2 2 2 2 2 2
4 5 4 1 2 2 4 5 4 4 3 5 5 3 3 2 2 2 2 2 2 2 2 2 1 1 1 3 1 1 1 1 2 2 1 2 2 2 2 2 2 2 2 3
3 1 2 3 4 4 5 4 4 5 5 5 4 3 2 1 1 1 2 1 2 2 2 2 2 1 1 1 1 1 1 1 1 1 1 1 2 2 2 2 3 3 3 3
1 0 4 5 4 4 5 5 5 5 4 5 5 3 2 2 1 1 1 1 1 1 1 2 3 3 2 2 0 1 1 1 1 1 1 2 2 2 3 3 4 4 4 3
3 3 3 1 1 4 5 5 4 5 4 3 3 3 3 2 1 1 1 1 1 1 1 2 2 2 3 2 0 1 1 1 1 1 1 1 1 1 1 2 3 4 5 4
4 2 3 2 3 4 5 4 4 4 4 2 1 2 2 2 2 1 0 0 1 1 2 2 2 2 3 2 0 1 1 1 1 1 1 1 1 2 2 2 2 2 3 3
3 4 4 2 1 2 3 3 4 4 3 2 2 2 2 1 1 1 1 1 1 2 2 3 3 4 4 3 2 1 1 1 0 1 1 1 1 2 2 2 1 2 2 3
2 3 3 2 2 2 2 3 4 3 3 4 3 3 3 2 2 1 2 2 2 3 3 3 3 4 5 3 2 1 1 1 1 1 1 1 1 1 1 1 2 1 1 1
2 3 3 3 2 1 2 3 3 1 2 2 2 2 2 2 2 2 2 2 2 2 3 3 4 4 4 3 2 1 1 2 1 1 1 1 1 1 1 1 2 2 2 2
4 2 1 1 1 1 1 1 2 2 2 2 2 1 2 2 2 2 2 1 1 1 2 3 4 5 4 3 2 2 2 2 3 2 1 1 0 1 1 1 1 1 2 2
5 5 4 3 2 1 1 1 2 2 2 2 2 2 2 1 0 0 1 1 2 3 3 3 3 4 4 3 2 2 2 2 1 1 1 1 1 1 1 1 1 1 1 1
3 3 2 2 2 2 2 1 1 1 1 2 3 2 1 1 1 0 1 1 2 2 4 4 4 3 3 3 3 1 1 2 2 2 1 2 2 1 1 1 1 1 1 0
2 3 3 2 2 3 2 1 1 1 1 2 2 1 0 1 1 1 1 1 1 2 3 3 3 3 3 3 3 1 1 2 2 2 2 1 1 1 1 1 1 1 1 1
3 3 3 3 2 2 2 2 2 1 0 1 1 1 1 1 1 1 1 1 3 3 2 2 2 2 2 3 3 2 2 1 2 2 2 2 2 2 1 1 1 1 1 1
2 3 3 3 2 1 1 1 2 1 1 1 1 1 1 0 0 0 1 2 3 2 1 1 1 2 3 3 2 2 2 2 2 2 2 1 1 2 2 1 1 1 1 1
2 2 3 2 1 0 0 1 1 1 1 1 0 1 1 1 1 1 1 2 1 1 1 1 2 4 4 2 2 2 2 2 2 2 2 2 1 1 2 2 1 1 1 1
1 2 1 1 2 2 1 1 0 0 1 1 1 1 1 1 1 1 2 1 1 1 1 1 2 4 3 2 2 2 2 2 2 2 2 2 2 1 1 1 1 1 1 1
1 1 1 1 1 1 1 0 1 1 1 1 1 1 0 1 1 1 1 0 0 1 1 2 2 3 2 1 2 2 2 2 2 2 2 2 2 2 2 2 2 1 1 1
1 0 1 1 2 2 2 1 1 1 1 0 1 1 0 0 1 0 0 0 0 1 1 1 1 1 1 1 2 2 2 2 2 2 2 2 2 2 2 1 1 1 1 1
0 0 0 1 1 1 1 1 1 1 2 2 1 1 1 0 1 1 1 0 1 1 1 1 1 1 1 2 2 2 2 2 2 2 2 2 2 2 2 2 2 1 2 2
Wind_Direction
202 235 51 41 348 114 134 169 175 207 193 218 210 178 162 120 113 112 118 135 145 155 164 156 166 174 172 174 170 174 172 184 198 199 200 199 198 202 204 206 208 204 206 213
6 358 29 31 10 56 100 123 139 136 199 226 168 87 68 75 101 112 123 141 147 150 158 160 163 164 158 165 170 174 181 195 199 197 200 201 199 194 190 202 207 192 201 207
310 325 34 348 278 124 81 48 140 166 207 164 98 95 106 111 106 107 119 116 137 148 154 165 167 159 162 167 165 164 175 186 188 188 193 203 203 196 203 209 205 200 207 205
101 46 204 249 270 119 103 74 75 98 142 138 131 125 95 97 110 98 85 91 88 78 82 129 133 141 149 148 158 168 178 190 191 186 191 193 191 199 203 206 210 210 214 218
113 146 276 304 325 162 115 60 51 107 106 110 122 84 43 35 74 105 103 96 101 74 68 95 113 122 127 128 142 158 176 190 192 186 189 187 194 209 208 200 212 213 209 212
125 146 218 259 285 121 94 42 316 105 116 123 99 83 316 349 52 64 67 78 72 52 55 59 60 94 110 133 140 184 198 196 189 180 186 194 201 208 208 205 219 221 225 218
148 178 253 270 295 73 106 215 243 134 129 119 121 170 191 137 68 69 72 63 69 55 56 78 73 92 103 128 215 222 210 201 188 188 198 199 199 203 203 204 213 220 227 230
137 147 252 293 50 124 188 189 140 108 111 113 120 125 121 109 89 74 60 46 50 42 2 353 66 97 116 247 249 222 179 187 200 204 209 198 190 208 198 185 189 220 236 257
164 197 239 343 104 137 136 125 118 107 105 117 119 124 120 112 98 76 71 52 34 48 8 346 10 109 196 253 245 175 170 203 220 219 207 189 184 195 193 187 197 214 222 240
65 11 23 45 54 50 68 89 101 107 105 103 110 122 122 108 90 68 61 50 34 43 21 338 336 345 258 255 211 162 192 228 214 203 224 224 199 188 189 199 207 215 218 235
67 347 36 23 34 64 69 68 75 87 102 118 121 135 148 157 168 139 77 45 64 76 28 335 332 331 325 317 40 135 190 209 229 215 208 223 226 211 207 216 207 209 220 218
204 219 152 238 355 63 66 62 71 84 77 84 121 138 151 173 201 181 141 73 18 12 357 318 328 327 326 319 274 170 196 223 222 219 215 214 215 258 264 228 233 222 224 217
168 147 122 119 67 62 70 70 61 67 82 73 60 110 136 173 200 178 139 39 340 326 322 328 343 337 325 329 293 184 216 229 233 225 226 226 209 203 239 285 280 251 247 242
118 94 76 75 95 82 90 89 80 65 63 72 66 58 70 79 60 49 354 316 329 352 2 360 359 340 326 339 1 334 311 293 263 243 240 234 224 221 214 212 249 290 285 258
71 105 143 134 84 76 79 82 77 63 58 54 58 59 60 55 41 14 343 352 23 27 17 5 355 328 325 340 0 346 311 285 265 262 255 239 223 210 209 216 219 242 269 292
102 82 98 93 102 92 82 89 102 112 100 87 71 50 48 61 52 27 19 24 35 16 352 350 337 320 326 338 347 342 321 308 302 290 283 280 256 224 216 216 227 228 226 234
125 130 121 101 105 96 112 145 153 151 124 110 114 100 72 59 54 34 19 5 340 4 4 359 332 329 344 360 358 342 330 327 333 340 330 300 280 243 228 211 222 236 245 236
160 165 165 170 172 154 119 116 132 137 145 140 124 113 112 124 158 275 306 354 16 12 358 337 334 348 352 352 350 343 340 338 336 320 315 319 308 278 253 224 218 244 269 285
135 134 132 140 150 137 122 114 134 135 132 121 117 134 170 201 188 111 12 43 25 344 320 325 341 358 344 333 341 337 337 332 327 318 308 303 304 305 295 271 256 248 240 168
126 129 120 116 116 122 126 129 117 107 130 138 134 144 241 244 182 117 83 32 281 269 288 322 338 335 324 324 342 340 336 338 336 324 316 300 288 289 276 257 246 239 240 230
104 110 107 103 93 104 121 128 126 134 173 138 150 181 207 229 186 142 113 298 292 301 331 322 321 319 319 322 329 337 343 349 342 323 319 321 318 308 297 280 267 258 243 241
88 94 97 97 92 90 96 106 125 135 101 66 67 127 142 180 224 205 230 233 260 277 280 296 306 318 325 330 341 342 339 340 332 326 322 329 328 317 312 305 292 281 268 253
104 103 99 98 112 154 351 60 121 136 142 153 136 137 158 188 190 178 265 275 260 264 262 291 317 324 328 343 351 345 339 336 330 324 321 320 314 309 309 307 303 300 300 311
106 98 118 127 105 86 58 344 9 120 148 138 144 162 160 155 294 260 227 251 273 282 282 304 319 320 325 346 344 342 340 341 342 341 341 344 340 338 339 332 317 309 307 310
109 104 111 100 104 170 214 232 41 36 55 44 356 334 302 161 179 233 232 241 358 355 316 312 318 318 329 352 351 347 348 350 350 355 2 355 347 344 341 337 326 318 319 323
126 170 199 196 195 200 195 179 181 207 161 99 325 325 6 75 109 142 187 278 302 298 303 314 326 333 356 360 353 347 345 344 346 348 348 346 345 346 341 338 340 336 326 304
67 80 61 340 289 250 217 181 176 192 181 171 193 238 224 139 98 80 80 24 355 354 351 352 5 20 12 2 356 353 352 355 353 352 358 0 0 354 346 343 338 336 330 329